Flag for U.S.A. Weather past 2 weeks in Rancho Cucamonga, California, U.S.A.

77 °F

Passing clouds.

Feels Like: 78 °F
Forecast: 71 / 94 °F
Wind: 3 mph from Northwest

Location: Ontario International Airport

Current Time: Oct 10, 2015 at 2:44:42 AM

Latest Report: Oct 10, 2015 at 1:53 AM

Visibility: 10 mi

Pressure: 29.92 "Hg

Humidity: 35%

Dew point: 47 °F

Location of Rancho CucamongaLocation

Historic Weather in Rancho Cucamonga — Graph


Rancho Cucamonga temperature yesterday

Maximum temperature yesterday: 103 °F (at 2:53 PM)
Minimum temperature yesterday: 70 °F (at 4:53 AM)
Average temperature yesterday: 86 °F

Past Weeks' High & Low Weather Summary

High103 °F (Oct 9, 2:53 PM)93% (Oct 5, 10:53 PM)30.09 "Hg (Oct 5, 10:53 PM)
Low58 °F (Oct 5, 2:53 AM)11% (Oct 9, 2:53 PM)29.52 "Hg (Oct 3, 5:53 PM)
Average76 °F53%29.83 "Hg
* Reported Sep 25 12:53 AM — Oct 10 12:53 AM, Rancho Cucamonga, Weather by CustomWeather, © 2015

Note: Actual official high and low records may vary slightly from our data, if they occured in-between our weather recording intervals... More about our weather records


Rancho Cucamonga weather history for previous 24 hours

Time TempWeatherWind HumidityBarometerVisibility
12:53 AM
Sat, Oct 10
75 °FClear.7 mph39%29.92 "Hg10 mi
11:53 PM
Fri, Oct 9
78 °FPassing clouds.6 mph35%29.92 "Hg10 mi
10:53 PM81 °FPassing clouds.6 mph30%29.91 "Hg10 mi
9:53 PM84 °FPassing clouds.5 mph26%29.90 "Hg10 mi
8:53 PM87 °FPassing clouds.No wind23%29.88 "Hg10 mi
7:53 PM90 °FPassing clouds.No wind18%29.86 "Hg10 mi
6:53 PM95 °FPassing clouds.3 mph14%29.83 "Hg10 mi
5:53 PM98 °FPassing clouds.9 mph12%29.81 "Hg10 mi
4:53 PM101 °FPassing clouds.15 mph11%29.80 "Hg10 mi
3:53 PM103 °FPassing clouds.15 mph11%29.80 "Hg10 mi
2:53 PM103 °FPassing clouds.18 mph11%29.81 "Hg10 mi
1:53 PM102 °FPassing clouds.16 mph12%29.83 "Hg10 mi
12:53 PM102 °FPassing clouds.14 mph13%29.85 "Hg10 mi
11:53 AM96 °FPassing clouds.7 mph19%29.89 "Hg10 mi
10:53 AM93 °FPassing clouds.7 mph22%29.90 "Hg10 mi
9:53 AM87 °FScattered clouds.No wind25%29.92 "Hg10 mi
8:53 AM82 °FPartly sunny.3 mph32%29.93 "Hg10 mi
7:53 AM75 °FPartly sunny.No wind50%29.91 "Hg10 mi
6:53 AM71 °FPassing clouds.5 mph49%29.90 "Hg10 mi
5:53 AM70 °FPassing clouds.No wind53%29.89 "Hg10 mi
4:53 AM70 °FPassing clouds.No wind59%29.88 "Hg10 mi
3:53 AM73 °FPassing clouds.No wind57%29.88 "Hg10 mi
2:53 AM73 °FPartly cloudy.5 mph57%29.89 "Hg10 mi
Weather by CustomWeather, © 2015

See weather overviewHow to use our weather pages